DECAYED

STARLINK-1808, 46707 (Decayed)

Orbit data source: Space-Track

STARLINK-1808, 46707 was a payload satellite owned by SpaceX/Seattle (US) in LEO that was launched on Sun, 18 Oct 2020 UTC via an FALCON 9 launch vehicle from the Air Force Eastern Test Range (AFETR). Payload-class satellites include a variety of spacecraft equipped with specific instruments for various scientific and technological missions. These include communications satellites like Starlink; space stations such as the ISS; scientific satellites like the Hubble; Earth observation satellites from companies like Planet Labs, Umbra, and HawkEye 360; GPS; miniature CubeSats for education and research; and military/defense satellites.

Not visible in the next 10 days
Identifier
46707, 2020-073AP
Orbit
Decayed
Country
Flag of USUS
Related business
Manufacturer
SpaceX/Seattle
Mission
Decayed Commercial Communications
Bus & Motor
STARLINK, Unknown motor
Mass
260 kg wet, ~248 kg dry
Launch date (UTC)
2020-10-18 (6 years ago)
Launch vehicle
FALCON 9
Launch site
Air Force Eastern Test Range (AFETR)
Object type
Payload
Rocket body
Debris
Shape & HBR
Box + 1 Pan, 10.1 m
Radar Cross Section
13.562 m², Large (>1 m²)

Expand to show TLE details & history
Last TLE update: 1 year ago

TLE from 1 year ago
0 STARLINK-1808
1 46707U 20073AP  25114.66700407  .18271860  12410-4  62444-3 0  9997
2 46707  53.0151 149.6226 0006929 234.8873 226.3397 16.44115334250700
Epoch: 2025-04-24T16:00Z
TLE epoch observation values (Epoch: 2025-04-24T16:00:29.151Z)
Latitude
51.75492°
Longitude
164.75684°
Altitude
164.156 km
Speed
7.812 km/s
True Right ascension
17h 11m 15s
True Declination
51° 34' 21"
Sunlit
Object was in full shadow at epoch
Visualization orbit readout
Latitude
Unknown
Longitude
Unknown
Altitude
Unknown
Speed
Unknown
Apparent Right ascension
Unknown
Apparent Declination
Unknown
Sunlit
N/A
Visualization observer readout
Local Sidereal Time
11:14:28
Azimuth
Unknown
Elevation
Unknown
Doppler factor
Unknown
Orbital elements
Apogee altitude
159.698 km
Perigee altitude
150.644 km
Semi-major axis
6,533.308 km
Eccentricity
0.00069
Inclination
53.0151°
RAAN
149.6226°
Arg. of periapsis
234.8873°
True anomaly
226.28229°
Mean anomaly
226.3397°
Eccentric anomaly
226.31099°
Mean motion
4.11002 °/min
Orbital period
87.59 mins
BSTAR
0.00062444
Loading maneuver chart data...
Computing Atmospheric mass density...
Loading historical data...
Loading historical data...
Loading historical data...
Loading historical data...
Loading historical data...
Loading historical data...
Loading historical data...

Documentation

Showing up to 5 results
|